Regional Weather Roundup
Issued by NWS

Home | Current Version | Previous Version | Text Only | Print | Product List | Glossary On
Versions: 1 2 3 4 5 6 7 8 9 10 11 12 13 14 15 16 17 18 19 20 21 22 23 24 25 26 27 28 29 30 31 32 33 34 35 36 37 38 39 40 41 42 43 44 45 46 47 48 49 50
000
ASUS45 KBOU 062107
RWRCO

WEATHER ROUNDUP FOR COLORADO
NATIONAL WEATHER SERVICE DENVER/BOULDER CO
300 PM MDT WED MAY 06 2015

NOTE: "FAIR" INDICATES FEW OR NO CLOUDS BELOW 12000 FEET WITH NO
SIGNIFICANT WEATHER AND/OR OBSTRUCTIONS TO VISIBILITY.

COZ001>005-013-030-031-062200-
...NORTHWEST COLORADO...

CITY           SKY/WX    TMP DP  RH WIND       PRES   REMARKS
CRAIG          CLOUDY    55  42  61 W12       29.79F
HAYDEN         CLOUDY    54  39  58 W12       29.80S
MEEKER         LGT RAIN  52  46  80 SW9       29.83R
MOUNT WERNER   NOT AVBL
STEAMBOAT SPGS CLOUDY    50  41  72 CALM      29.80F
WALDEN         CLOUDY    46  41  81 NE8       29.80F
$$

COZ006>008-011-062200-
...WEST CENTRAL VALLEYS...

CITY           SKY/WX    TMP DP  RH WIND       PRES   REMARKS
GRAND JUNCTION CLOUDY    56  50  80 E13       29.79R
MONTROSE       CLOUDY    56  45  66 NW10      29.86S
EAGLE          LGT RAIN  52  46  82 SW25      29.84R
RIFLE          RAIN      50  46  86 W9        29.84R FOG
DELTA          CLOUDY    56  51  82 E6        29.84S
NUCLA          CLOUDY    55  43  62 NE6       29.87F
$$

COZ017>023-064>068-062200-
...SOUTHWEST COLORADO...

CITY           SKY/WX    TMP DP  RH WIND       PRES   REMARKS
DURANGO        PTSUNNY   61  39  44 W17G25    29.89F
CORTEZ         CLOUDY    60  41  49 W6        29.87F
PAGOSA SPRINGS TSTM      55  39  55 W15G28    29.94R
TELLURIDE      PTSUNNY   47  35  63 SE8       30.00S
WOLF CREEK PAS NOT AVBL
$$

COZ009-010-012-014-032>034-037-058>063-062200-
...CENTRAL COLORADO...

CITY           SKY/WX    TMP DP  RH WIND       PRES   REMARKS
ASPEN          LGT RAIN  48  41  76 N9        29.87R
BUENA VISTA    NOT AVBL
COPPER MTN     CLOUDY    37  34  87 W17G23    30.00R THUNDER
BERTHOUD PASS  CLOUDY    30  21  69 NW22G32   30.00R WCI  17
COTTONWOOD PAS TSTM      41  36  81 W22G35    29.91R
GUNNISON       PTSUNNY   57  34  41 W23G29    29.88F
KREMMLING      CLOUDY    55  37  50 W14G23    29.81F
LEADVILLE      PTSUNNY   47  32  56 N14G23    29.90F
MONARCH PASS     N/A     32  32 100 MISG      30.10F THUNDER
SALIDA         PTSUNNY   58  36  44 S10G18    29.90S
SUNLIGHT       CLOUDY    36  36 100 CALM      30.01R VSB 1/4
WILKERSON PASS CLOUDY    36  34  93 SW8G16    29.97S
$$

COZ069>075-062200-
...SAN LUIS VALLEY/SANGRE DE CRISTO MOUNTAINS...

CITY           SKY/WX    TMP DP  RH WIND       PRES   REMARKS
ALAMOSA        PTSUNNY   59  38  45 N22G29    29.87R
LA VETA PASS   TSTM     N/A N/A N/A MISG      29.91F
SAGUACHE       CLOUDY    50  41  71 NE5       29.88F THUNDER
$$

COZ035-036-038>040-062200-
...NORTHERN COLORADO FRONT RANGE...

CITY           SKY/WX    TMP DP  RH WIND       PRES   REMARKS
DENVER INTL AP PTSUNNY   62  45  53 N5        29.69F
DMNS CITY PARK   N/A     63  47  54 NE9       29.69F
AURORA         PTSUNNY   59  47  64 NE5       29.71F
FRONT RANGE AP PTSUNNY   63  46  55 NE5       29.70F
ERIE MUNI ARPT CLOUDY    63  48  57 NE5       29.68S
BOULDER MUN AP CLOUDY    63  48  59 E5        29.68S
CENTENNIAL     CLOUDY    61  46  57 NE12      29.71S
BROOMFIELD     PTSUNNY   61  48  63 E7        29.70
FORT COLLINS   CLOUDY    57  48  72 W6        29.71R
LONGMONT       CLOUDY    67  49  52 NE10      29.70R
$$

COZ041-046-047-076>085-087-088-062200-
...PIKES PEAK/PALMER DIVIDE AND SOUTHERN FOOTHILLS...

CITY           SKY/WX    TMP DP  RH WIND       PRES   REMARKS
COLO. SPRINGS  TSTM      59  45  59 VRB7      29.73R
A. F. ACADEMY  CLOUDY    53  48  82 NE13      29.74S
ELLICOTT       PTSUNNY  N/A N/A N/A S9        29.71F THUNDER
FALCON         PTSUNNY   47  41  79 CALM      29.78R THUNDER
FORT CARSON    TSTM      54  47  77 N5        29.71R
LIMON          CLOUDY    64  47  53 NW10      29.71S
MONUMENT HILL  TSTM      50  43  76 W14       29.79R
TRINIDAD       CLOUDY    68  42  38 VRB6      29.73S
$$

COZ042>045-048>051-090-091-062200-
...NORTHEAST COLORADO...

CITY           SKY/WX    TMP DP  RH WIND       PRES   REMARKS
GREELEY ARPT   CLOUDY    64 N/A N/A NW7       29.67S
AKRON          RAIN      54  53  97 W14       29.64R
BURLINGTON     CLOUDY    65  50  58 SW7       29.65F
WRAY           LGT RAIN  63  55  75 SW10      29.60F
STERLING       LGT RAIN  59  55  88 NW12      29.60R
HOLYOKE        NOT AVBL
FORT MORGAN    CLOUDY    65  50  57 NW13      29.64F
$$

COZ086-089-092>099-062200-
...SOUTHEAST COLORADO...

CITY           SKY/WX    TMP DP  RH WIND       PRES   REMARKS
PUEBLO         MOSUNNY   71  47  42 S10G16    29.63F
LA JUNTA       SUNNY     76  49  38 SW5G17    29.63F
LAMAR          PTSUNNY   76  47  35 SW13      29.62F
SPRINGFIELD      N/A     72  44  36 S6        29.67F
$$



USA.gov is the U.S. government's official web portal to all federal, state and local government web resources and services.